Location: Barnesville Cemetery
(32.3515°N, 97.1533°W)
Time: 03:11:03
(UTC+00:00)

Daily predictions for brighter satellites

Satellite Brightness Start Highest point End
(mag) Time Altitude Azimuth Time Altitude Azimuth Time Altitude Azimuth
deb Chang Zheng 4 3.5 01:45:55 10° SSE 01:50:00 64° ENE 01:54:05 10° N
USA 234 3.6 01:46:00 10° SSE 01:52:30 67° SW 01:59:02 10° NW
ASTRO E2 2.6 01:49:08 10° W 01:53:02 78° S 01:56:57 10° E
Cosmos 1743 Rocket 3.7 01:49:51 10° N 01:54:19 87° W 01:58:44 10° S
COSMOS 2487 2.2 01:52:43 10° NNW 01:55:49 83° WSW 01:58:55 10° SSE
Cosmos 1812 3.4 01:52:21 10° SSW 01:56:06 58° W 01:59:52 10° N
Cosmos 1805 Rocket 3.6 01:54:38 10° N 01:59:05 70° E 02:03:27 10° SSE
Cosmos 44 3.7 01:56:04 10° NNW 02:00:09 40° ENE 02:04:15 10° SE
Cosmos 1697 Rocket 3.0 01:58:17 10° S 02:03:39 46° ESE 02:09:02 10° NNE
Okean O Rocket 3.6 02:00:32 10° SSW 02:04:17 28° W 02:08:01 10° NW
SL-27 R/B 3.8 02:01:43 10° NW 02:04:47 35° WSW 02:07:48 10° S
YAOGAN 1 4.3 02:01:48 10° SSW 02:05:42 33° W 02:09:36 10° NNW
Cosmos 2360 4.5 02:01:02 10° S 02:06:24 46° ESE 02:11:49 10° NE
Cosmos 1633 Rocket 4.3 02:03:28 10° NNE 02:07:03 24° ENE 02:10:21 11° SE
OAO 3 Rocket 3.6 02:04:07 10° W 02:08:59 64° N 02:13:54 10° E
H-2A R/B 2.7 02:05:08 10° SSE 02:09:29 62° ENE 02:13:45 10° N
CZ-4 R/B 3.1 02:06:35 10° SSW 02:10:11 34° W 02:13:52 10° NNW
CSL-04 Debris 4.2 02:05:38 10° SSE 02:11:03 81° ENE 02:16:29 10° N
ATLAS CENTAUR Rocket 4.0 01:52:43 10° SW 02:13:36 39° S 02:18:22 12° ESE
Cosmos 1570 Rocket 4.5 02:09:55 10° N 02:14:56 45° ENE 02:19:30 12° SE
Tsikada Rocket 4.0 02:08:49 10° N 02:15:06 74° E 02:21:16 10° S
Sich 1 3.0 02:11:37 10° N 02:15:59 88° ENE 02:20:17 10° S
Cosmos 1486 Rocket 4.3 02:11:53 10° S 02:16:55 46° ESE 02:21:58 10° NNE
Resurs 01 Rocket 3.1 02:16:11 13° ESE 02:18:49 21° ENE 02:22:06 10° NNE
Cosmos 2297 Rocket 2.7 02:13:43 10° N 02:19:06 43° ENE 02:23:35 14° SE
Cosmos 1814 Rocket 3.9 02:15:22 10° NNW 02:20:29 71° ENE 02:25:31 10° SSE
SJ-6B 2.7 02:18:32 10° SSE 02:22:23 88° ENE 02:26:11 10° N
Meteor 1-5 Rocket 4.1 02:19:05 10° N 02:24:27 88° E 02:29:44 10° S
Cosmos 1515 Rocket 4.4 02:21:57 13° SE 02:25:06 29° E 02:28:53 10° NNE
Cosmos 1315 Rocket 3.2 02:22:11 10° N 02:26:05 46° E 02:29:00 16° SSE
USA 129 3.6 02:28:08 11° NNE 02:28:08 11° NNE 02:28:13 10° NNE
Cosmos 841 Rocket 4.5 02:23:13 10° NNW 02:28:08 46° WSW 02:33:04 10° S
Meteor 1-10 Rocket 4.1 02:23:21 10° S 02:28:50 73° E 02:34:24 10° NNE
Okean-O 3.1 02:26:00 10° S 02:30:22 61° W 02:34:45 10° NNW
Cosmos 1340 3.6 02:28:29 18° SE 02:30:23 28° E 02:33:37 10° NNE
Cosmos 2098 Rocket 4.4 02:29:35 10° NNW 02:32:05 24° W 02:34:28 10° SSW
Cosmos 1184 Rocket 4.0 02:33:05 20° E 02:33:05 20° E 02:35:24 10° NE
Cosmos 405 4.0 02:30:35 10° NNE 02:33:31 27° ENE 02:34:34 22° ESE
Meteor 1-14 Rocket 4.4 02:31:11 10° N 02:37:03 77° W 02:42:45 10° S
Meteor 1-27 Rocket 3.9 02:33:21 10° S 02:38:52 53° E 02:44:31 10° NNE
IGS 5A 3.4 02:38:01 13° S 02:41:41 84° WSW 02:45:51 10° NNW
Spot 2 4.4 02:38:17 10° S 02:42:18 57° WSW 02:46:16 10° NNW
ATLAS 2AS CENTAUR R/B 3.2 02:35:21 10° S 02:42:44 49° ESE 02:50:05 10° NE
Cosmos 1743 4.0 02:41:45 10° NNE 02:44:45 22° ENE 02:45:13 22° E
Cosmos 1503 Rocket 4.2 02:41:01 10° S 02:46:03 50° ESE 02:51:09 10° NNE
PSLV R/B 3.9 02:42:50 10° N 02:46:53 84° W 02:50:54 10° SSW
BREEZE-M DEB (TANK) 3.3 02:44:27 10° NW 02:47:57 87° NE 02:51:14 24° SE
Cosmos 2278 4.3 02:48:36 21° SSE 02:51:20 33° ESE 02:56:20 10° NE
CZ-4B R/B 1.1 02:48:21 10° N 02:51:31 84° WNW 02:53:42 18° SSW
MetOp-A 4.2 02:48:09 10° S 02:52:10 48° W 02:55:59 10° NNW
COBE Rocket 4.2 02:47:18 11° S 02:52:17 70° W 02:57:18 10° NNW
Milstar 3 Cent rocket 4.3 02:33:31 10° W 02:52:57 55° SSW 02:59:33 23° SE
SPOT 1/Viking Rocket 3.9 02:53:29 27° SE 02:56:00 48° ENE 03:00:57 10° N
Cosmos 2219 3.4 02:51:39 10° N 02:57:10 54° ENE 02:59:50 29° SE
Meteor 1-11 Rocket 3.8 02:53:38 10° N 02:59:35 66° E 03:03:02 26° SSE
SWIFT 4.3 02:59:26 10° SW 03:01:05 15° SSW 03:01:05 15° SSW
H-2A R/B 3.4 02:58:56 10° N 03:02:44 38° WNW 03:06:34 10° SW
Cosmos 1464 Rocket 3.9 02:57:25 13° S 03:03:02 72° E 03:09:11 10° N
Cosmos 2263 Rocket 4.0 03:05:48 10° NNE 03:09:04 16° ENE 03:10:33 14° ENE
Okean 1 3.9 03:09:21 37° E 03:09:21 37° E 03:12:54 10° NNE
RESURS DK-1 2.5 03:09:41 47° ESE 03:09:54 48° ESE 03:13:52 10° NE
Aureole 1 Rocket 3.8 03:06:44 10° SW 03:10:06 38° WNW 03:13:02 10° N
Cosmos 1536 2.7 03:08:58 10° N 03:12:58 68° E 03:13:43 53° SE
Cosmos 2344 3.8 03:05:39 10° SW 03:13:35 71° WNW 03:20:58 10° NNE
Cosmos 2208 Rocket 4.4 03:08:19 10° NNW 03:13:39 61° WSW 03:16:48 24° S
NOSS 3-2 (C) 4.4 03:10:06 10° NW 03:18:07 69° WSW 03:23:43 25° SSE
Ariane Rocket 2.9 03:18:14 40° SSE 03:20:07 80° ENE 03:25:12 10° N
SL-4 R/B 3.3 03:17:11 10° NNW 03:21:14 32° NE 03:22:14 29° ENE
IRS-1A Rocket 4.4 03:21:20 29° S 03:24:17 75° WSW 03:30:01 10° NNW
Cosmos 2227 Rocket 2.3 03:20:33 10° NNW 03:26:12 72° WSW 03:28:30 36° S
CENTAUR R/B 4.2 03:18:28 10° NW 03:26:28 41° WSW 03:33:21 15° S
Nadezhda 4 Rocket 4.1 03:20:29 10° N 03:26:34 56° E 03:28:17 42° SE
Cosmos 1980 Rocket 2.6 03:22:42 10° SSW 03:28:14 63° WNW 03:33:51 10° NNE
ASTRO E2 3.2 03:29:20 10° W 03:32:28 48° SW 03:32:28 48° SW
Cosmos 1933 Rocket 3.4 03:29:29 10° N 03:33:58 88° E 03:34:30 69° S
SPOT 5 3.7 03:34:22 38° E 03:34:50 39° ENE 03:39:39 10° N
Cosmos 2322 Rocket 3.9 03:38:50 17° ENE 03:38:50 17° ENE 03:40:40 10° NE
Meteor 1-19 Rocket 4.0 03:36:58 42° S 03:38:54 89° E 03:44:19 10° N
Terra 3.1 03:40:18 26° ENE 03:40:18 26° ENE 03:43:51 10° NNE
Meteor 2-4 Rocket 4.1 03:40:03 44° E 03:40:08 44° E 03:45:32 10° NNE
Helios 1A Rocket 3.6 03:41:33 42° NE 03:41:33 42° NE 03:44:43 10° N
SJ 16-02 1.6 03:39:52 41° SW 03:41:11 65° WNW 03:45:32 10° N
Timation 2 Rocket 4.3 03:39:06 10° NNW 03:45:40 59° ENE 03:47:15 48° ESE
SPOT 3 Rocket 3.4 03:49:44 67° S 03:50:26 85° WSW 03:55:36 10° NNW
Cosmos 2026 Rocket 4.5 03:45:21 10° N 03:51:09 41° E 03:51:24 41° E
OAO 3 Rocket 3.1 03:47:46 10° WNW 03:52:44 81° NNE 03:52:53 80° NE
Cosmos 1777 Rocket 4.1 03:51:22 44° SW 03:52:59 74° WNW 03:58:12 10° NNE
Spot 2 Rocket 3.5 03:53:56 62° ENE 03:53:56 62° ENE 03:58:51 10° N
Resurs 01 Rocket 3.3 03:53:43 22° SW 03:55:06 26° W 03:58:49 10° NW
Cosmos 2297 Rocket 4.2 03:58:46 10° NW 04:02:43 20° W 04:05:25 14° SW
Cosmos 773 Rocket 4.0 03:59:14 10° N 04:04:05 66° NE 04:04:05 66° NE
Meteor 2-8 Rocket 4.4 04:04:47 64° E 04:04:52 64° E 04:10:53 10° NNE
Cosmos 1627 Rocket 4.5 04:04:36 10° N 04:10:48 63° E 04:10:57 63° E
Meteor 2-21 4.4 04:06:00 10° N 04:12:06 75° W 04:13:01 63° SSW
USA 215 3.6 04:05:53 10° NE 04:10:52 47° E 04:10:52 47° E
Meteor 2-9 Rocket 4.2 04:07:21 10° NNW 04:13:03 74° W 04:13:23 71° SW
Cosmos 2228 Rocket 4.0 04:14:39 45° W 04:14:46 45° W 04:19:08 10° N
SL-16 R/B 2.3 04:15:42 66° NE 04:15:42 66° NE 04:20:40 10° NNE
Cosmos 921 Rocket 4.0 04:14:05 10° NNW 04:17:43 43° WNW 04:17:43 43° WNW
Meteor 2-15 4.3 04:21:02 81° ENE 04:21:02 81° ENE 04:26:59 10° N
USA 81 4.2 04:22:41 67° N 04:22:41 67° N 04:27:14 10° N
Meteor 2-21 Rocket 4.3 04:19:32 10° N 04:25:39 79° W 04:25:53 78° WSW
Cosmos 2279 Rocket 4.0 04:28:04 64° ENE 04:28:04 64° ENE 04:33:38 10° NNE
ERS-1 Rocket 3.5 04:32:44 55° WNW 04:32:44 55° WNW 04:36:58 10° NNW
ATLAS 2AS CENTAUR R/B 4.4 04:26:54 10° WSW 04:33:51 35° NW 04:40:43 10° NNE
ARIANE 5 R/B 3.9 04:38:20 38° NNW 04:38:20 38° NNW 04:41:08 10° NNW
Meteor 2-16 Rocket 4.5 04:32:02 10° N 04:38:04 74° W 04:38:04 74° W
Cosmos 2360 Rocket 3.5 04:43:37 31° NE 04:43:37 31° NE 04:46:35 10° NNE
Cosmos 2263 Rocket 2.8 04:47:54 10° NNW 04:52:15 49° WNW 04:52:15 49° WNW
ATLAS 3B R/B 3.1 05:00:49 10° NNW 05:08:11 59° ENE 05:08:17 59° ENE
Terra 4.0 05:19:10 20° WNW 05:19:10 20° WNW 05:21:23 10° NW
Cosmos 2322 Rocket 3.3 05:20:35 38° NW 05:20:35 38° NW 05:25:21 10° N
Cosmos 2333 Rocket 3.7 05:25:37 30° NNE 05:25:37 30° NNE 05:28:26 10° NNE
Cosmos 1844 Rocket 3.9 05:27:59 10° N 05:31:29 36° NNE 05:31:29 36° NNE
Cosmos 2219 Rocket 3.7 05:47:59 30° NNE 05:47:59 30° NNE 05:50:45 10° NNE
USA 215 4.5 05:49:11 10° NNE 05:55:03 37° NW 05:58:09 24° W
ADEOS Rocket 4.1 06:03:06 36° NNE 06:03:06 36° NNE 06:06:48 10° N
Cosmos 2237 Rocket 4.3 06:16:53 19° NE 06:16:53 19° NE 06:18:42 10° NE
COSMOS 2428 4.1 06:18:12 34° NNE 06:18:12 34° NNE 06:21:21 10° NNE
Cosmos 2360 Rocket 4.4 06:25:20 17° WNW 06:25:24 17° WNW 06:29:03 10° NNW
USA 267 4.4 06:24:07 33° ENE 06:25:40 37° NE 06:31:34 10° NNW
ATLAS CENTAUR R/B 4.3 06:36:50 10° NNW 06:37:56 17° NNW 06:37:56 17° NNW
Cosmos 2278 Rocket 3.8 06:46:41 10° N 06:50:48 29° NE 06:50:48 29° NE
SL-16 R/B 4.2 07:03:37 20° ENE 07:03:37 20° ENE 07:05:59 10° NE
NOSS 3-1 (C) 4.2 07:00:42 10° NNW 07:07:55 73° WNW 07:07:55 73° WNW
CZ-4C R/B 3.0 07:20:49 10° NNW 07:28:18 82° WNW 07:28:18 82° WNW
Lacrosse 5 3.4 07:35:14 33° NNE 07:35:14 33° NNE 07:37:59 10° NE
Lacrosse 5 rocket 4.2 07:43:58 14° NE 07:43:58 14° NE 07:44:36 10° NE
Meteor 2-5 Rocket 4.4 07:45:31 53° NE 07:45:31 53° NE 07:49:57 10° NNE
CZ-2D R/B 3.0 07:43:51 10° NNE 07:47:44 44° NE 07:47:44 44° NE
Cosmos 2237 Rocket 3.7 07:58:41 28° NW 07:58:41 28° NW 08:02:39 10° N
BREEZE-M DEB (TANK) 4.2 08:01:25 86° ESE 08:01:25 86° ESE 08:16:30 10° SE
USA 267 4.3 08:11:25 31° WNW 08:11:25 31° WNW 08:14:50 10° NW
SL-16 R/B 2.9 08:15:02 51° ESE 08:16:16 60° ENE 08:22:23 10° N
Resurs 1-4 Rocket 2.6 08:12:04 10° N 08:16:15 54° NNW 08:16:15 54° NNW
Cosmos 1943 Rocket 3.0 08:17:48 10° N 08:23:17 48° ENE 08:25:08 35° ESE
USA 229 DEB 4.1 08:17:47 10° NW 08:24:29 55° W 08:24:29 55° W
USA 229 4.1 08:17:53 10° NW 08:24:37 55° W 08:24:37 55° W
Cosmos 2074 Rocket 3.9 08:25:29 10° N 08:31:49 82° E 08:32:36 69° SSE
ADEOS II 2.1 08:27:25 10° NNE 08:32:23 77° NE 08:32:23 77° NE
IDEFIX/ARIANE 42P 2.7 08:27:52 10° NNE 08:33:04 66° E 08:33:04 66° E
Cosmos 1536 Rocket 4.3 08:36:38 49° N 08:36:38 49° N 08:39:53 10° N
Cosmos 2278 Rocket 4.0 08:30:45 10° NW 08:32:35 19° WNW 08:32:35 19° WNW
NOSS 3-3 (A) 4.0 08:35:52 55° ESE 08:36:02 55° ESE 08:41:50 10° NE
NOSS 3-3 (C) 4.0 08:35:58 54° ESE 08:36:08 54° ESE 08:41:55 10° NE
OAO 2 Rocket 4.3 08:38:02 38° ESE 08:38:02 38° ESE 08:41:18 10° E
SL-16 R/B 3.0 08:45:29 36° WNW 08:45:29 36° WNW 08:50:35 10° N
CZ-3A R/B 4.2 08:46:13 23° SE 08:46:13 23° SE 08:53:36 10° E
NPP 4.2 08:41:49 10° N 08:46:35 44° WNW 08:46:35 44° WNW
Cosmos 2184 Rocket 3.8 08:40:46 10° N 08:47:00 77° W 08:47:43 68° SSW
FALCON 9 R/B 4.1 08:15:36 10° WNW 08:47:07 71° SSW 08:54:33 10° SE
Cosmos 1455 4.0 08:44:41 10° N 08:46:22 25° NNW 08:46:22 25° NNW
IRS-1D 4.1 08:43:37 10° NNE 08:48:49 53° E 08:49:47 46° SE
Cosmos 2369 Rocket 4.0 08:44:44 10° N 08:49:31 28° ENE 08:54:16 10° ESE
UNK 4.1 08:52:25 54° NW 08:52:25 54° NW 08:56:04 10° NNW
Cosmos 1271 Rocket 3.6 08:49:34 10° N 08:52:48 48° NE 08:52:48 48° NE
COSMOS 2455 3.1 08:57:22 48° W 08:58:06 51° WNW 09:03:58 10° NNE
COSMOS 2441 4.4 08:54:21 10° NNE 08:59:11 69° ESE 08:59:45 62° SE
MOS 1 Rocket 3.6 09:00:29 47° NW 09:00:29 47° NW 09:03:40 10° NNW
Cosmos 1603 3.7 09:07:22 49° S 09:08:50 72° ESE 09:14:28 10° NNE
Helios 1B rocket 3.4 09:09:10 10° NNE 09:13:00 40° E 09:14:02 33° SE
Cosmos 1328 4.0 09:14:10 60° ESE 09:14:31 63° E 09:18:26 10° NNE
Nadezhda 1 Rocket 4.3 09:13:36 43° WSW 09:14:43 47° W 09:20:46 10° N
ALOS 4.1 09:11:17 10° NE 09:15:11 26° E 09:18:22 13° SSE
Lacrosse 5 4.1 09:14:25 11° WNW 09:16:31 14° NW 09:19:12 10° N
MSX 3.9 09:13:25 10° N 09:19:06 61° WNW 09:20:38 45° SW
Helios 1A 3.1 09:19:40 57° WNW 09:19:40 57° WNW 09:23:29 10° NNW
Lacrosse 5 rocket 3.7 09:19:29 11° NW 09:20:14 11° NW 09:21:37 10° NNW
CZ-2C R/B 4.0 09:16:30 10° NE 09:20:58 31° E 09:24:41 13° SSE
CZ-2D R/B 4.0 09:25:48 10° NNW 09:28:33 14° WNW 09:29:03 14° WNW
Lacrosse 4 Rocket 3.3 09:27:30 16° SSE 09:29:49 24° ESE 09:33:17 10° NE
Cosmos 1371 Rocket 4.1 09:30:20 32° S 09:32:44 69° ESE 09:37:52 10° NNE
Cosmos 1892 Rocket 3.5 09:33:24 40° S 09:34:57 88° ESE 09:39:27 10° N
GPS 2-04 Rocket1 2.2 09:39:12 69° W 09:39:32 82° NNW 09:43:04 10° ENE
Cosmos 1943 3.5 09:37:59 35° WSW 09:40:01 52° WNW 09:45:34 10° N
Meteor 2-1 Rocket 4.1 09:38:57 10° N 09:44:41 85° W 09:50:06 11° S
Cosmos 1726 Rocket 3.5 09:40:57 10° N 09:45:22 83° E 09:48:44 17° S
ATLAS 2A CENTAUR R/B 3.9 09:33:44 21° WSW 09:46:33 60° S 09:53:32 10° E
Cosmos 1140 Rocket 4.0 09:41:49 10° N 09:47:01 60° ENE 09:52:09 10° SSE
Cosmos 2366 rocket 4.2 09:42:44 10° N 09:48:54 72° E 09:55:05 10° SSE
Cosmos 2341 Rocket 4.0 09:43:58 10° N 09:50:21 74° W 09:56:42 10° S
SeaSat 1 3.3 09:47:24 10° NE 09:52:08 46° ESE 09:56:10 14° S
[s.n.52708] 3.9 09:53:18 28° NW 09:53:30 28° NW 09:56:00 10° NNE
[s.n.52707] 3.9 09:53:24 28° NW 09:53:37 28° NW 09:56:08 10° NNE
[s.n.52703] 3.9 09:53:31 27° NW 09:53:44 28° NW 09:56:14 10° NNE
[s.n.52705] 3.9 09:53:37 27° NW 09:53:51 28° NW 09:56:21 10° NNE
[s.n.52706] 4.0 09:53:44 27° NW 09:53:58 28° NW 09:56:27 10° NNE
[s.n.52701] 4.0 09:53:51 27° NW 09:54:04 28° NW 09:56:34 10° NNE
[s.n.52704] 4.0 09:53:57 27° NW 09:54:11 28° NW 09:56:41 10° NNE
[s.n.52699] 4.0 09:54:04 27° NW 09:54:19 27° NW 09:56:48 10° NNE
[s.n.52702] 4.0 09:54:11 27° NW 09:54:26 27° NW 09:56:55 10° NNE
[s.n.52697] 4.0 09:54:18 27° NW 09:54:33 27° NW 09:57:03 10° NNE
[s.n.52700] 4.0 09:54:24 27° NW 09:54:40 27° NW 09:57:09 10° NNE
[s.n.52695] 4.0 09:54:31 27° NW 09:54:47 27° NW 09:57:16 10° NNE
[s.n.52698] 4.0 09:54:38 27° NW 09:54:54 27° NW 09:57:23 10° NNE
[s.n.52693] 4.0 09:54:45 26° NW 09:55:01 27° NW 09:57:30 10° NNE
[s.n.52696] 4.0 09:54:51 26° NW 09:55:08 27° NW 09:57:37 10° NNE
[s.n.52691] 4.0 09:54:58 26° NW 09:55:15 27° NW 09:57:43 10° NNE
[s.n.52689] 4.0 09:55:05 26° NW 09:55:22 27° NW 09:57:51 10° NNE
[s.n.52694] 4.0 09:55:12 26° NW 09:55:29 27° NW 09:57:58 10° NNE
[s.n.52692] 4.0 09:55:18 26° NW 09:55:36 27° NW 09:58:04 10° NNE
[s.n.52687] 4.0 09:55:25 26° NW 09:55:43 27° NW 09:58:11 10° NNE
[s.n.52685] 4.0 09:55:32 26° NW 09:55:50 26° NW 09:58:18 10° NNE
[s.n.52690] 4.0 09:55:39 26° NW 09:55:57 26° NW 09:58:25 10° NNE
SL-8 Rocket 4.0 09:49:40 10° N 09:56:01 81° W 10:02:18 10° S
[s.n.52688] 4.0 09:55:45 26° NW 09:56:04 26° NW 09:58:32 10° NNE
[s.n.52683] 4.0 09:55:52 26° NW 09:56:11 26° NW 09:58:39 10° NNE
[s.n.52686] 4.0 09:55:59 25° NW 09:56:19 26° NW 09:58:47 10° NNE
[s.n.52681] 4.1 09:56:06 25° NW 09:56:26 26° NW 09:58:54 10° NNE
SL-24 DEB 4.2 09:52:24 14° S 09:56:28 85° W 10:01:12 10° N
[s.n.52679] 4.1 09:56:13 25° NW 09:56:33 26° NW 09:59:00 10° NNE
[s.n.52684] 4.1 09:56:20 25° NW 09:56:40 26° NW 09:59:08 10° NNE
[s.n.52682] 4.1 09:56:26 25° NW 09:56:47 26° NW 09:59:15 10° NNE
[s.n.52677] 4.1 09:56:34 25° NW 09:56:55 26° NW 09:59:22 10° NNE
Cosmos 1892 2.7 09:54:43 23° S 09:56:58 80° E 10:00:44 10° N
[s.n.52680] 4.1 09:56:41 25° NW 09:57:02 26° NW 09:59:29 10° NNE
[s.n.52675] 4.1 09:56:47 25° NW 09:57:09 26° NW 09:59:36 10° NNE
[s.n.52678] 4.1 09:56:54 25° NW 09:57:16 26° NW 09:59:43 10° NNE
[s.n.52673] 4.1 09:57:02 25° NW 09:57:24 25° NW 09:59:51 10° NNE
[s.n.52676] 4.1 09:57:08 25° NW 09:57:31 25° NW 09:59:58 10° NNE
[s.n.52671] 4.1 09:57:16 24° NW 09:57:39 25° NW 10:00:05 10° NNE
[s.n.52669] 4.1 09:57:22 24° WNW 09:57:46 25° NW 10:00:12 10° NNE
[s.n.52674] 4.1 09:57:29 24° WNW 09:57:53 25° NW 10:00:20 10° NNE
[s.n.52672] 4.1 09:57:36 24° WNW 09:58:00 25° NW 10:00:26 10° NNE
[s.n.52667] 4.1 09:57:44 24° WNW 09:58:08 25° NW 10:00:34 10° NNE
[s.n.52665] 4.1 09:57:51 24° WNW 09:58:16 25° NW 10:00:41 10° NNE
[s.n.52670] 4.1 09:57:58 24° WNW 09:58:23 25° NW 10:00:48 10° NNE
[s.n.52668] 4.1 09:58:05 24° WNW 09:58:30 25° NW 10:00:56 10° NNE
[s.n.52666] 4.1 09:58:12 24° WNW 09:58:37 25° NW 10:01:03 10° NNE
[s.n.52663] 4.1 09:58:18 24° WNW 09:58:45 25° NW 10:01:10 10° NNE
[s.n.52662] 4.2 09:58:26 24° WNW 09:58:52 25° NW 10:01:17 10° NNE
[s.n.52664] 4.2 09:58:33 23° WNW 09:58:59 25° NW 10:01:24 10° NNE
[s.n.52661] 4.2 09:58:40 23° WNW 09:59:07 24° NW 10:01:32 10° NNE
[s.n.52660] 4.2 09:58:47 23° WNW 09:59:14 24° NW 10:01:39 10° NNE
[s.n.52656] 4.2 09:58:54 23° WNW 09:59:22 24° NW 10:01:46 10° NNE
[s.n.52658] 4.2 09:59:02 23° WNW 09:59:29 24° NW 10:01:54 10° NNE
[s.n.52659] 4.2 09:59:08 23° WNW 09:59:37 24° NW 10:02:01 10° NNE
[s.n.52657] 4.2 09:59:16 23° WNW 09:59:45 24° NW 10:02:09 10° NNE
IRS-1C 4.1 09:54:46 10° NNE 10:00:07 83° ESE 10:04:46 14° SSW
SL-16 R/B 4.0 10:00:07 17° W 10:00:10 17° W 10:03:58 10° NW
Cosmos 1023 Rocket 4.4 09:59:54 10° NNW 10:05:11 84° WSW 10:10:24 10° SSE
Cosmos 1624 Rocket 4.1 10:02:57 23° SW 10:06:13 60° WNW 10:11:28 10° N
Cosmos 1943 Rocket 3.6 10:02:50 10° WNW 10:06:32 18° W 10:06:33 18° W
Cosmos 1408 2.6 10:04:50 27° SSW 10:06:35 59° W 10:10:11 10° N
FENGYUN 3A 3.7 10:02:03 10° N 10:07:23 67° WNW 10:11:39 16° SSW
Cosmos 2263 4.1 10:03:38 10° NNW 10:09:20 78° WSW 10:15:03 10° SSE
Cosmos 2228 4.3 10:07:24 10° NW 10:10:39 21° W 10:11:19 20° WSW
SEDSat Delta rocket 4.0 10:07:16 19° WSW 10:12:22 75° S 10:19:01 10° E
ARIANE 5 R/B 2.4 10:07:43 10° NNE 10:12:46 89° WNW 10:17:42 10° SSW
Cosmos 2056 Rocket 3.9 10:14:38 19° SW 10:17:57 45° WNW 10:22:58 10° N
Cosmos 1626 Rocket 3.5 10:15:30 10° S 10:19:55 89° ESE 10:24:19 10° N
Cosmos 2058 Rocket 3.0 10:16:46 10° NNW 10:21:07 66° W 10:25:24 10° S
OAO 2 Rocket 3.4 10:16:57 14° W 10:21:13 71° N 10:26:08 10° ENE
Nadezhda 3 Rocket 4.0 10:26:52 10° S 10:33:12 88° W 10:39:30 10° N
Cosmos 2369 Rocket 2.9 10:28:35 10° NW 10:33:25 31° WSW 10:38:15 10° SSW
YAOGAN 6 4.0 10:34:31 10° NNE 10:37:55 39° E 10:41:20 10° SSE
Cosmos 2218 Rocket 4.4 10:32:29 10° NNW 10:38:17 42° W 10:44:10 10° SSW
Cosmos 1190 Rocket 4.0 10:33:28 10° NNW 10:38:44 68° WSW 10:43:59 10° S
Cosmos 1656 Rocket 4.2 10:35:52 10° NW 10:40:40 33° WSW 10:45:29 10° SSW
CZ-4B R/B 4.4 10:36:33 10° NNE 10:41:38 52° E 10:46:46 10° S
CZ-4C R/B 3.8 10:38:44 10° SSE 10:42:13 58° ENE 10:45:53 10° N
Cosmos 1869 3.2 10:41:08 10° N 10:45:03 89° W 10:48:53 10° S
OAO 3 Copernicus 4.3 10:40:17 10° WSW 10:45:14 88° SSE 10:50:17 10° ENE
Cosmos 1758 Rocket 3.6 10:41:55 10° S 10:46:18 83° E 10:50:40 10° N
Spot 4 Rocket 4.0 10:42:45 10° N 10:47:53 82° WNW 10:53:00 10° SSW
Meteor 1-27 4.2 10:42:54 10° N 10:48:39 79° W 10:54:16 10° S
Cosmos 2058 4.5 10:47:25 10° SSE 10:51:12 37° E 10:55:00 10° NNE
CZ-2D R/B 4.0 10:48:00 10° N 10:51:40 37° WNW 10:55:18 10° SW
ATLAS 3B CENTAUR R/B 3.2 10:48:03 10° SW 10:51:46 31° SSE 10:57:53 10° E
ALOS 3.6 10:48:41 10° NNW 10:52:23 24° WNW 10:56:05 10° WSW
Meteor 1-29 4.3 10:50:12 10° NNW 10:52:45 22° WNW 10:55:19 10° SW
Cosmos 676 Rocket 4.0 10:51:58 10° NNW 10:57:19 80° WSW 11:02:38 10° S
CZ-2C R/B 2.7 10:54:37 10° NNE 10:58:17 85° ESE 11:01:57 10° S
Genesis I 3.5 10:54:51 10° NW 10:58:41 45° WSW 11:02:25 10° S
Cosmos 1821 Rocket 4.1 10:52:21 10° NNW 10:58:42 65° W 11:04:58 10° S
CZ-2C R/B 3.8 10:54:59 10° NNW 10:58:56 23° WNW 11:02:48 10° WSW
